This is the latest recevied weather packets stored in our database for station/object KF0WJA. If no packets are shown the sender has not sent any weather packets the latest 10 day(s).
| Time | Temp. | Humidity | Pressure | Rain* | Wind** | Luminosity | Snow |
|---|---|---|---|---|---|---|---|
| 1788650049 | 37.22° C | 37% | 1013.9 hPa | 0 mm | - | 58 W/m² | - |
| 1788649745 | 37.22° C | 35% | 1014.1 hPa | 0 mm | - | 216 W/m² | - |
| 1788649443 | 37.22° C | 35% | 1014.2 hPa | 0 mm | - | 250 W/m² | - |
| 1788649141 | 37.22° C | 36% | 1014.3 hPa | 0 mm | - | 263 W/m² | - |
| 1788648836 | 36.67° C | 37% | 1014.4 hPa | 0 mm | - | 214 W/m² | - |
| 1788648532 | 36.67° C | 37% | 1014.4 hPa | 0 mm | - | 77 W/m² | - |
| 1788648227 | 36.67° C | 36% | 1014.3 hPa | 0 mm | - | 78 W/m² | - |
| 1788647922 | 37.78° C | 36% | 1014.3 hPa | 0 mm | - | 237 W/m² | - |
| 1788647620 | 37.78° C | 35% | 1014.1 hPa | 0 mm | - | 362 W/m² | - |
| 1788647320 | 37.78° C | 35% | 1014.1 hPa | 0 mm | - | 390 W/m² | - |
| 1788647019 | 37.22° C | 35% | 1014.1 hPa | 0 mm | - | 406 W/m² | - |
| 1788646715 | 37.78° C | 35% | 1014.2 hPa | 0 mm | - | 361 W/m² | - |
| 1788646411 | 38.33° C | 35% | 1013.9 hPa | 0 mm | - | 416 W/m² | - |
| 1788646107 | 38.33° C | 35% | 1014.1 hPa | 0 mm | - | 423 W/m² | - |
| 1788645803 | 38.33° C | 34% | 1014.2 hPa | 0 mm | - | 447 W/m² | - |
| 1788645502 | 38.89° C | 33% | 1014.1 hPa | 0 mm | - | 460 W/m² | - |
| 1788645198 | 38.33° C | 34% | 1014.1 hPa | 0 mm | - | 467 W/m² | - |
| 1788644894 | 38.33° C | 33% | 1013.9 hPa | 0 mm | - | 468 W/m² | - |
| 1788644590 | 37.78° C | 34% | 1013.9 hPa | 0 mm | - | 457 W/m² | - |
| 1788644284 | 37.78° C | 35% | 1013.9 hPa | 0 mm | - | 474 W/m² | - |
| 1788643980 | 38.33° C | 35% | 1014.1 hPa | 0 mm | - | 498 W/m² | - |
| 1788643675 | 38.89° C | 35% | 1014.2 hPa | 0 mm | - | 493 W/m² | - |
| 1788643375 | 38.89° C | 35% | 1014.3 hPa | 0 mm | - | 505 W/m² | - |
| 1788643075 | 38.89° C | 33% | 1014.2 hPa | 0 mm | - | 558 W/m² | - |
| 1788642770 | 38.89° C | 32% | 1014.6 hPa | 0 mm | - | 594 W/m² | - |
* Rain latest hour (hover to see other rain measurements)
** Current wind speed in m/s (hover to see current wind gust speed)